Time,TemperatureF,DewpointF,PressureIn,WindDirection,WindDirectionDegrees,WindSpeedMPH,WindSpeedGustMPH,Humidity,HourlyPrecipIn,Conditions,Clouds,dailyrainin,SoftwareType,DateUTC
2013-07-31 00:11:00,67.0,65.0,30.13,ENE,69,0.0,0.0,93,0.00,,,0.01,,2013-07-31 05:11:00,
2013-07-31 00:22:00,67.0,65.0,30.12,ENE,68,0.0,0.0,94,0.00,,,0.01,,2013-07-31 05:22:00,
2013-07-31 00:32:00,67.0,65.0,30.12,ENE,68,0.0,0.0,94,0.00,,,0.01,,2013-07-31 05:32:00,
2013-07-31 00:42:00,67.0,65.0,30.11,ENE,69,0.0,0.0,94,0.00,,,0.01,,2013-07-31 05:42:00,
2013-07-31 00:52:00,66.0,64.0,30.11,ENE,68,0.0,0.0,94,0.00,,,0.01,,2013-07-31 05:52:00,
2013-07-31 01:02:00,66.0,64.0,30.11,ENE,68,0.0,0.0,94,0.00,,,0.01,,2013-07-31 06:02:00,
2013-07-31 01:12:00,66.0,64.0,30.12,ENE,69,0.0,0.0,94,0.00,,,0.01,,2013-07-31 06:12:00,
2013-07-31 01:22:00,66.0,64.0,30.11,ENE,69,0.0,0.0,94,0.00,,,0.01,,2013-07-31 06:22:00,
2013-07-31 01:32:00,66.0,64.0,30.11,ENE,69,0.0,0.0,94,0.00,,,0.01,,2013-07-31 06:32:00,
2013-07-31 01:43:00,66.0,64.0,30.11,ENE,68,0.0,0.0,94,0.00,,,0.01,,2013-07-31 06:43:00,
2013-07-31 01:52:00,66.0,64.0,30.12,ENE,69,0.0,0.0,94,0.00,,,0.01,,2013-07-31 06:52:00,
2013-07-31 02:02:00,66.0,64.0,30.12,ENE,69,0.0,0.0,94,0.00,,,0.01,,2013-07-31 07:02:00,
2013-07-31 02:12:00,65.0,63.0,30.13,ENE,69,0.0,0.0,94,0.00,,,0.01,,2013-07-31 07:12:00,
2013-07-31 02:22:00,65.0,63.0,30.13,ENE,69,0.0,0.0,94,0.00,,,0.01,,2013-07-31 07:22:00,
2013-07-31 02:32:00,65.0,63.0,30.13,ENE,69,0.0,0.0,94,0.00,,,0.01,,2013-07-31 07:32:00,
2013-07-31 02:43:00,65.0,63.0,30.12,ENE,68,0.0,0.0,94,0.00,,,0.01,,2013-07-31 07:43:00,
2013-07-31 02:52:00,64.0,62.0,30.11,ENE,69,0.0,0.0,94,0.01,,,0.02,,2013-07-31 07:52:00,
2013-07-31 03:02:00,64.0,62.0,30.11,ENE,69,0.0,0.0,94,0.01,,,0.02,,2013-07-31 08:02:00,
2013-07-31 03:12:00,64.0,62.0,30.11,ENE,69,0.0,0.0,94,0.01,,,0.02,,2013-07-31 08:12:00,
2013-07-31 03:22:00,64.0,62.0,30.11,ENE,69,0.0,0.0,94,0.01,,,0.02,,2013-07-31 08:22:00,
2013-07-31 03:32:00,64.0,62.0,30.11,ENE,69,0.0,0.0,94,0.01,,,0.02,,2013-07-31 08:32:00,
2013-07-31 03:42:00,64.0,63.0,30.11,ENE,69,0.0,0.0,95,0.01,,,0.02,,2013-07-31 08:42:00,
2013-07-31 03:53:00,64.0,63.0,30.11,ENE,68,0.0,0.0,95,0.00,,,0.02,,2013-07-31 08:53:00,
2013-07-31 04:02:00,64.0,63.0,30.11,ENE,68,0.0,0.0,95,0.00,,,0.02,,2013-07-31 09:02:00,
2013-07-31 04:12:00,64.0,63.0,30.11,ENE,69,0.0,0.0,95,0.00,,,0.02,,2013-07-31 09:12:00,
2013-07-31 04:22:00,64.0,63.0,30.11,ENE,69,0.0,0.0,95,0.00,,,0.02,,2013-07-31 09:22:00,
2013-07-31 04:32:00,64.0,63.0,30.11,ENE,69,0.0,0.0,95,0.00,,,0.02,,2013-07-31 09:32:00,
2013-07-31 04:43:00,63.0,62.0,30.11,ENE,69,0.0,0.0,95,0.00,,,0.02,,2013-07-31 09:43:00,
2013-07-31 04:52:00,63.0,62.0,30.11,ENE,69,0.0,0.0,95,0.00,,,0.02,,2013-07-31 09:52:00,
2013-07-31 05:02:00,63.0,62.0,30.11,ENE,69,0.0,0.0,95,0.00,,,0.02,,2013-07-31 10:02:00,
2013-07-31 05:12:00,63.0,62.0,30.12,ENE,69,0.0,0.0,95,0.00,,,0.02,,2013-07-31 10:12:00,
2013-07-31 05:22:00,64.0,63.0,30.13,ENE,69,0.0,0.0,95,0.00,,,0.02,,2013-07-31 10:22:00,
2013-07-31 05:32:00,64.0,63.0,30.13,ENE,69,0.0,0.0,95,0.00,,,0.02,,2013-07-31 10:32:00,
2013-07-31 05:44:00,64.0,63.0,30.13,ENE,69,0.0,0.0,95,0.00,,,0.02,,2013-07-31 10:44:00,
2013-07-31 05:52:00,64.0,63.0,30.14,ENE,69,0.0,0.0,95,0.00,,,0.02,,2013-07-31 10:52:00,
2013-07-31 06:03:00,64.0,63.0,30.14,ENE,69,0.0,0.0,95,0.00,,,0.02,,2013-07-31 11:03:00,
2013-07-31 06:12:00,64.0,63.0,30.16,ENE,69,0.0,0.0,95,0.00,,,0.02,,2013-07-31 11:12:00,
2013-07-31 06:22:00,65.0,64.0,30.17,NNW,335,0.0,0.0,95,0.00,,,0.02,,2013-07-31 11:22:00,
2013-07-31 06:33:00,65.0,64.0,30.17,NNW,335,0.0,0.0,95,0.00,,,0.02,,2013-07-31 11:33:00,
2013-07-31 06:43:00,65.0,64.0,30.18,NNW,334,0.0,0.0,95,0.00,,,0.02,,2013-07-31 11:43:00,
2013-07-31 06:52:00,66.0,65.0,30.18,NNW,335,0.0,0.0,95,0.00,,,0.02,,2013-07-31 11:52:00,
2013-07-31 07:02:00,66.0,65.0,30.18,NNW,335,0.0,0.0,95,0.00,,,0.02,,2013-07-31 12:02:00,
2013-07-31 07:12:00,66.0,65.0,30.16,NNW,334,0.0,0.0,95,0.00,,,0.01,,2013-07-31 12:12:00,
2013-07-31 07:22:00,67.0,66.0,30.16,SSE,168,0.0,0.0,95,0.00,,,0.01,,2013-07-31 12:22:00,
2013-07-31 07:32:00,67.0,66.0,30.16,SSE,168,0.0,0.0,95,0.00,,,0.01,,2013-07-31 12:32:00,
2013-07-31 07:43:00,67.0,66.0,30.16,NE,40,0.0,0.0,95,0.00,,,0.01,,2013-07-31 12:43:00,
2013-07-31 07:52:00,67.0,66.0,30.14,SSE,153,0.0,0.0,96,0.00,,,0.01,,2013-07-31 12:52:00,
2013-07-31 08:02:00,67.0,66.0,30.14,SSE,153,0.0,0.0,96,0.00,,,0.01,,2013-07-31 13:02:00,
2013-07-31 08:12:00,68.0,67.0,30.13,SSE,152,0.0,0.0,96,0.00,,,0.01,,2013-07-31 13:12:00,
2013-07-31 08:22:00,68.0,67.0,30.13,South,188,0.0,0.0,95,0.00,,,0.01,,2013-07-31 13:22:00,
2013-07-31 08:43:00,69.0,68.0,30.13,SE,146,0.0,0.0,96,0.00,,,0.01,,2013-07-31 13:43:00,
2013-07-31 08:53:00,68.0,67.0,30.12,SSW,198,0.0,3.0,96,0.00,,,0.01,,2013-07-31 13:53:00,
2013-07-31 09:02:00,68.0,67.0,30.12,SSW,198,0.0,3.0,96,0.00,,,0.01,,2013-07-31 14:02:00,
2013-07-31 09:12:00,69.0,68.0,30.16,North,11,0.0,0.0,96,0.00,,,0.01,,2013-07-31 14:12:00,
2013-07-31 09:22:00,70.0,69.0,30.16,North,10,0.0,0.0,96,0.00,,,0.01,,2013-07-31 14:22:00,
2013-07-31 09:34:00,70.0,69.0,30.16,North,10,0.0,0.0,96,0.00,,,0.01,,2013-07-31 14:34:00,
2013-07-31 09:43:00,70.0,69.0,30.16,North,10,0.0,0.0,96,0.00,,,0.01,,2013-07-31 14:43:00,
2013-07-31 09:53:00,70.0,69.0,30.16,SE,136,0.0,0.0,96,0.00,,,0.01,,2013-07-31 14:53:00,
2013-07-31 10:02:00,70.0,69.0,30.16,SE,136,0.0,0.0,96,0.00,,,0.01,,2013-07-31 15:02:00,
2013-07-31 10:12:00,70.0,69.0,30.16,WSW,240,0.0,0.0,96,0.00,,,0.01,,2013-07-31 15:12:00,
2013-07-31 10:22:00,71.0,70.0,30.16,SE,126,0.0,0.0,96,0.00,,,0.01,,2013-07-31 15:22:00,
2013-07-31 10:33:00,71.0,70.0,30.16,SE,126,0.0,0.0,96,0.00,,,0.01,,2013-07-31 15:33:00,
2013-07-31 10:43:00,72.0,71.0,30.16,South,184,0.0,0.0,96,0.00,,,0.01,,2013-07-31 15:43:00,
2013-07-31 10:52:00,73.0,71.0,30.16,SSE,165,0.0,0.0,95,0.00,,,0.01,,2013-07-31 15:52:00,
2013-07-31 11:02:00,73.0,71.0,30.16,SSE,165,0.0,0.0,95,0.00,,,0.01,,2013-07-31 16:02:00,
2013-07-31 11:12:00,74.0,72.0,30.17,SSW,196,0.0,0.0,94,0.00,,,0.01,,2013-07-31 16:12:00,
2013-07-31 11:22:00,75.0,71.0,30.17,WNW,299,0.0,1.0,88,0.00,,,0.01,,2013-07-31 16:22:00,
2013-07-31 11:33:00,75.0,71.0,30.17,WNW,299,0.0,1.0,88,0.00,,,0.01,,2013-07-31 16:33:00,
2013-07-31 11:44:00,78.0,72.0,30.17,NNW,346,0.0,0.0,83,0.00,,,0.01,,2013-07-31 16:44:00,
2013-07-31 11:52:00,78.0,71.0,30.16,West,271,0.0,0.0,80,0.00,,,0.01,,2013-07-31 16:52:00,
2013-07-31 12:02:00,78.0,71.0,30.16,West,271,0.0,0.0,80,0.00,,,0.01,,2013-07-31 17:02:00,
2013-07-31 12:13:00,78.0,71.0,30.16,West,271,0.0,0.0,80,0.00,,,0.01,,2013-07-31 17:13:00,
2013-07-31 12:22:00,79.0,72.0,30.16,West,271,0.0,0.0,79,0.00,,,0.01,,2013-07-31 17:22:00,
2013-07-31 12:33:00,79.0,72.0,30.16,West,271,0.0,0.0,79,0.00,,,0.01,,2013-07-31 17:33:00,
2013-07-31 12:43:00,81.0,73.0,30.15,ESE,119,0.0,1.0,77,0.00,,,0.01,,2013-07-31 17:43:00,
2013-07-31 12:53:00,82.0,72.0,30.14,SE,140,0.0,0.0,71,0.00,,,0.01,,2013-07-31 17:53:00,
2013-07-31 13:02:00,82.0,72.0,30.14,SE,140,0.0,0.0,71,0.00,,,0.01,,2013-07-31 18:02:00,
2013-07-31 13:12:00,81.0,72.0,30.15,NNW,336,0.0,0.0,73,0.00,,,0.01,,2013-07-31 18:12:00,
2013-07-31 13:22:00,83.0,74.0,30.15,SW,218,0.0,0.0,74,0.00,,,0.01,,2013-07-31 18:22:00,
2013-07-31 13:32:00,83.0,74.0,30.15,SW,218,0.0,0.0,74,0.00,,,0.01,,2013-07-31 18:32:00,
2013-07-31 13:43:00,83.0,73.0,30.15,South,173,0.0,0.0,71,0.00,,,0.01,,2013-07-31 18:43:00,
2013-07-31 13:52:00,83.0,72.0,30.14,SE,132,0.0,0.0,69,0.00,,,0.01,,2013-07-31 18:52:00,
2013-07-31 14:02:00,83.0,72.0,30.14,SE,132,0.0,0.0,69,0.00,,,0.01,,2013-07-31 19:02:00,
2013-07-31 14:12:00,83.0,72.0,30.14,NNE,21,0.0,0.0,69,0.00,,,0.01,,2013-07-31 19:12:00,
2013-07-31 14:22:00,83.0,72.0,30.14,North,355,0.0,0.0,70,0.00,,,0.01,,2013-07-31 19:22:00,
2013-07-31 14:32:00,83.0,72.0,30.14,North,355,0.0,0.0,70,0.00,,,0.01,,2013-07-31 19:32:00,
2013-07-31 14:43:00,84.0,73.0,30.13,ENE,67,0.0,0.0,70,0.00,,,0.01,,2013-07-31 19:43:00,
2013-07-31 14:52:00,84.0,70.0,30.12,West,267,0.0,0.0,64,0.00,,,0.01,,2013-07-31 19:52:00,
2013-07-31 15:02:00,84.0,70.0,30.12,West,267,0.0,0.0,64,0.00,,,0.01,,2013-07-31 20:02:00,
2013-07-31 15:12:00,85.0,70.0,30.12,NNW,339,0.0,0.0,61,0.00,,,0.01,,2013-07-31 20:12:00,
2013-07-31 15:22:00,85.0,70.0,30.12,NNW,339,0.0,0.0,61,0.00,,,0.01,,2013-07-31 20:22:00,
2013-07-31 15:32:00,85.0,72.0,30.12,North,360,0.0,0.0,65,0.00,,,0.01,,2013-07-31 20:32:00,
2013-07-31 15:42:00,86.0,71.0,30.11,NE,42,0.0,0.0,62,0.00,,,0.01,,2013-07-31 20:42:00,
2013-07-31 15:52:00,87.0,71.0,30.11,East,86,0.0,0.0,60,0.00,,,0.01,,2013-07-31 20:52:00,
2013-07-31 16:02:00,87.0,71.0,30.11,East,86,0.0,0.0,60,0.00,,,0.01,,2013-07-31 21:02:00,
2013-07-31 16:12:00,86.0,71.0,30.09,SW,230,0.0,0.0,61,0.00,,,0.01,,2013-07-31 21:12:00,
2013-07-31 16:22:00,86.0,70.0,30.08,ESE,118,0.0,0.0,60,0.00,,,0.01,,2013-07-31 21:22:00,
2013-07-31 16:32:00,86.0,70.0,30.08,ESE,118,0.0,0.0,60,0.00,,,0.01,,2013-07-31 21:32:00,
2013-07-31 16:43:00,86.0,71.0,30.08,South,169,0.0,4.0,61,0.00,,,0.01,,2013-07-31 21:43:00,
2013-07-31 16:53:00,87.0,71.0,30.09,ENE,60,0.0,1.0,60,0.00,,,0.01,,2013-07-31 21:53:00,
2013-07-31 17:02:00,87.0,71.0,30.09,ENE,60,0.0,1.0,60,0.00,,,0.01,,2013-07-31 22:02:00,
2013-07-31 17:12:00,87.0,70.0,30.08,SE,142,0.0,0.0,58,0.00,,,0.01,,2013-07-31 22:12:00,
2013-07-31 17:22:00,89.0,71.0,30.08,SE,131,0.0,0.0,56,0.00,,,0.01,,2013-07-31 22:22:00,
2013-07-31 17:33:00,89.0,71.0,30.08,SE,131,0.0,0.0,56,0.00,,,0.01,,2013-07-31 22:33:00,
2013-07-31 17:43:00,88.0,72.0,30.07,NNE,30,0.0,1.0,59,0.00,,,0.01,,2013-07-31 22:43:00,
2013-07-31 17:53:00,87.0,73.0,30.07,SE,136,3.0,5.0,63,0.00,,,0.01,,2013-07-31 22:53:00,
2013-07-31 18:02:00,87.0,73.0,30.07,SE,136,3.0,5.0,63,0.00,,,0.01,,2013-07-31 23:02:00,
2013-07-31 18:11:00,86.0,70.0,30.07,SE,146,0.0,2.0,60,0.00,,,0.01,,2013-07-31 23:11:00,
2013-07-31 18:22:00,87.0,71.0,30.07,SSE,147,0.0,0.0,59,0.00,,,0.01,,2013-07-31 23:22:00,
2013-07-31 18:32:00,87.0,71.0,30.07,SSE,147,0.0,0.0,59,0.00,,,0.01,,2013-07-31 23:32:00,
2013-07-31 18:42:00,88.0,72.0,30.07,SSE,147,0.0,0.0,59,0.00,,,0.01,,2013-07-31 23:42:00,
2013-07-31 18:52:00,87.0,73.0,30.08,SSE,147,0.0,0.0,63,0.00,,,0.01,,2013-07-31 23:52:00,
2013-07-31 19:02:00,87.0,73.0,30.08,SSE,147,0.0,0.0,63,0.00,,,0.01,,2013-08-01 00:02:00,
2013-07-31 19:12:00,85.0,72.0,30.07,SSE,147,0.0,0.0,65,0.00,,,0.01,,2013-08-01 00:12:00,
2013-07-31 19:22:00,84.0,72.0,30.07,SE,146,0.0,0.0,68,0.00,,,0.01,,2013-08-01 00:22:00,
2013-07-31 19:32:00,84.0,72.0,30.07,SE,146,0.0,0.0,68,0.00,,,0.01,,2013-08-01 00:32:00,
2013-07-31 19:43:00,82.0,73.0,30.07,SE,146,0.0,0.0,74,0.00,,,0.01,,2013-08-01 00:43:00,
2013-07-31 19:52:00,81.0,72.0,30.07,SE,146,0.0,0.0,75,0.00,,,0.01,,2013-08-01 00:52:00,
2013-07-31 20:02:00,81.0,72.0,30.07,SE,146,0.0,0.0,75,0.00,,,0.01,,2013-08-01 01:02:00,
2013-07-31 20:12:00,81.0,73.0,30.07,SE,146,0.0,0.0,76,0.00,,,0.01,,2013-08-01 01:12:00,
2013-07-31 20:22:00,80.0,73.0,30.07,SSE,147,0.0,0.0,80,0.00,,,0.01,,2013-08-01 01:22:00,
2013-07-31 20:33:00,80.0,73.0,30.07,SSE,147,0.0,0.0,80,0.00,,,0.01,,2013-08-01 01:33:00,
2013-07-31 20:43:00,80.0,74.0,30.08,SE,146,0.0,0.0,81,0.00,,,0.01,,2013-08-01 01:43:00,
2013-07-31 20:53:00,78.0,72.0,30.07,SE,146,0.0,0.0,81,0.00,,,0.01,,2013-08-01 01:53:00,
2013-07-31 21:02:00,78.0,72.0,30.07,SE,146,0.0,0.0,81,0.00,,,0.01,,2013-08-01 02:02:00,
2013-07-31 21:12:00,77.0,71.0,30.08,SE,146,0.0,0.0,83,0.00,,,0.01,,2013-08-01 02:12:00,
2013-07-31 21:32:00,76.0,72.0,30.08,SE,146,0.0,0.0,86,0.00,,,0.01,,2013-08-01 02:32:00,
2013-07-31 21:43:00,75.0,71.0,30.09,SE,146,0.0,0.0,88,0.00,,,0.01,,2013-08-01 02:43:00,
2013-07-31 22:02:00,74.0,70.0,30.10,SE,146,0.0,0.0,88,0.00,,,0.01,,2013-08-01 03:02:00,
2013-07-31 22:12:00,73.0,70.0,30.11,SE,146,0.0,0.0,89,0.00,,,0.01,,2013-08-01 03:12:00,
2013-07-31 22:32:00,72.0,69.0,30.11,SE,146,0.0,0.0,90,0.00,,,0.01,,2013-08-01 03:32:00,
2013-07-31 22:43:00,71.0,68.0,30.11,SE,146,0.0,0.0,90,0.00,,,0.01,,2013-08-01 03:43:00,
2013-07-31 22:53:00,71.0,68.0,30.11,SE,146,0.0,0.0,91,0.00,,,0.01,,2013-08-01 03:53:00,
2013-07-31 23:02:00,71.0,68.0,30.11,SE,146,0.0,0.0,91,0.00,,,0.01,,2013-08-01 04:02:00,
2013-07-31 23:12:00,71.0,69.0,30.11,SE,146,0.0,0.0,92,0.00,,,0.01,,2013-08-01 04:12:00,
2013-07-31 23:22:00,70.0,68.0,30.11,SE,146,0.0,0.0,92,0.00,,,0.01,,2013-08-01 04:22:00,
2013-07-31 23:33:00,70.0,68.0,30.11,SE,146,0.0,0.0,92,0.00,,,0.01,,2013-08-01 04:33:00,
2013-07-31 23:43:00,70.0,68.0,30.12,SE,146,0.0,0.0,93,0.00,,,0.01,,2013-08-01 04:43:00,
2013-07-31 23:52:00,70.0,68.0,30.11,SE,146,0.0,0.0,93,0.00,,,0.01,,2013-08-01 04:52:00,